Tracking 25648 objects as of 17-May-2022
HD Live streaming from Space Station
objects crossing your sky now

COSMOS 2251 DEB

Track COSMOS 2251 DEB now!
10-day predictions


NORAD ID: 37306
Int'l Code: 1993-036BJW
Perigee: 629.6 km
Apogee: 738.5 km
Inclination: 74.1 °
Period: 98.3 minutes
Semi major axis: 7055 km
RCS: 0.0072 m2 (small)
Launch date: June 16, 1993
Source: Commonwealth of Independent States (former USSR) (CIS)
Launch site: PLESETSK MISSILE AND SPACE COMPLEX (PKMTR)

Note: This is SATELLITE DEBRIS
aabbcc
Your satellite tracking list
Your tracking list is empty




NASA's NSSDC Master Catalog

Two Line Element Set (TLE):
1 37306U 93036BJW 22135.17517654  .00012649  00000-0  22588-2 0  9998
2 37306  74.0736 286.0043 0077186 280.8153 255.4372 14.65042431545627
Source of the keplerian elements: AFSPC